When you browse on this site, cookies collect data to enhance your experience and personalize the content and advertising you see.
Visit our Privacy Policy to learn more. By continuing to use the site, you agree to this use of cookies and data.
  • en France
  • Liste des pays
  • À 7 jours
  • Température de l'eau
  • Carte satellitaire
  • Carte météo
  • Widgets météo
  • user-avatar
    Se connecter

    Météo par heure à Djelfa

    Ce jour, 17 Juin, Lundi

    Heure Température Précipitation Vent Pression Humidité
    00:00 +24°C° 0 mm 6 m/s 664 mmHg 33%
    01:00 +23°C° 0 mm 4 m/s 664 mmHg 40%
    02:00 +22°C° 0 mm 3 m/s 664 mmHg 48%
    03:00 +21°C° 0 mm 1 m/s 663 mmHg 55%
    04:00 +20°C° 0 mm 2 m/s 664 mmHg 57%
    05:00 +20°C° 0 mm 3 m/s 664 mmHg 59%
    06:00 +21°C° 0 mm 3 m/s 665 mmHg 59%
    07:00 +23°C° 0 mm 4 m/s 665 mmHg 49%
    08:00 +26°C° 0 mm 4 m/s 666 mmHg 39%
    09:00 +28°C° 0 mm 5 m/s 666 mmHg 30%
    10:00 +29°C° 0 mm 4 m/s 666 mmHg 27%
    11:00 +30°C° 0 mm 4 m/s 666 mmHg 24%
    12:00 +33°C° 0 mm 3 m/s 666 mmHg 21%
    13:00 +33°C° 0 mm 3 m/s 666 mmHg 19%
    14:00 +33°C° 0 mm 3 m/s 665 mmHg 18%
    15:00 +34°C° 0 mm 4 m/s 665 mmHg 17%
    16:00 +33°C° 0 mm 5 m/s 665 mmHg 22%
    17:00 +30°C° 0 mm 7 m/s 665 mmHg 28%
    18:00 +29°C° 0 mm 8 m/s 665 mmHg 33%
    19:00 +28°C° 0 mm 7 m/s 665 mmHg 39%
    20:00 +26°C° 0 mm 6 m/s 665 mmHg 44%
    21:00 +23°C° 0 mm 5 m/s 665 mmHg 50%
    22:00 +23°C° 0 mm 4 m/s 666 mmHg 51%
    23:00 +22°C° 0 mm 3 m/s 666 mmHg 52%

    Demain, 18 Juin, Mardi

    Heure Température Précipitation Vent Pression Humidité
    00:00 +23°C° 0 mm 2 m/s 666 mmHg 53%
    01:00 +21°C° 0 mm 2 m/s 665 mmHg 55%
    02:00 +21°C° 0 mm 2 m/s 665 mmHg 56%
    03:00 +21°C° 0 mm 1 m/s 665 mmHg 57%
    04:00 +21°C° 0 mm 2 m/s 665 mmHg 52%
    05:00 +22°C° 0 mm 3 m/s 665 mmHg 47%
    06:00 +22°C° 0 mm 4 m/s 666 mmHg 43%
    07:00 +25°C° 0 mm 4 m/s 666 mmHg 37%
    08:00 +27°C° 0 mm 4 m/s 667 mmHg 32%
    09:00 +29°C° 0 mm 5 m/s 667 mmHg 26%
    10:00 +30°C° 0 mm 4 m/s 667 mmHg 23%
    11:00 +33°C° 0 mm 4 m/s 668 mmHg 20%
    12:00 +34°C° 0 mm 4 m/s 668 mmHg 17%
    13:00 +35°C° 0 mm 4 m/s 667 mmHg 16%
    14:00 +35°C° 0 mm 4 m/s 667 mmHg 14%
    15:00 +36°C° 0 mm 5 m/s 667 mmHg 13%
    16:00 +36°C° 0 mm 4 m/s 667 mmHg 13%
    17:00 +35°C° 0 mm 4 m/s 667 mmHg 14%
    18:00 +35°C° 0 mm 3 m/s 666 mmHg 14%
    19:00 +33°C° 0 mm 3 m/s 666 mmHg 17%
    20:00 +30°C° 0 mm 3 m/s 666 mmHg 19%
    21:00 +28°C° 0 mm 2 m/s 666 mmHg 22%
    22:00 +28°C° 0 mm 4 m/s 666 mmHg 23%
    23:00 +27°C° 0 mm 5 m/s 666 mmHg 24%

    Après-demain, 19 Juin, Mercredi

    Heure Température Précipitation Vent Pression Humidité
    00:00 +27°C° 0 mm 6 m/s 666 mmHg 25%
    01:00 +26°C° 0 mm 6 m/s 666 mmHg 27%
    02:00 +25°C° 0 mm 5 m/s 666 mmHg 28%
    03:00 +25°C° 0 mm 5 m/s 665 mmHg 30%
    04:00 +25°C° 0 mm 5 m/s 666 mmHg 29%
    05:00 +26°C° 0 mm 5 m/s 666 mmHg 28%
    06:00 +26°C° 0 mm 4 m/s 667 mmHg 27%
    07:00 +28°C° 0 mm 5 m/s 667 mmHg 25%
    08:00 +30°C° 0 mm 6 m/s 668 mmHg 22%
    09:00 +33°C° 0 mm 7 m/s 668 mmHg 19%
    10:00 +34°C° 0 mm 7 m/s 668 mmHg 18%
    11:00 +35°C° 0 mm 8 m/s 668 mmHg 16%
    12:00 +38°C° 0 mm 8 m/s 668 mmHg 14%
    13:00 +38°C° 0 mm 7 m/s 668 mmHg 14%
    14:00 +39°C° 0 mm 7 m/s 667 mmHg 13%
    15:00 +39°C° 0 mm 6 m/s 667 mmHg 12%
    16:00 +38°C° 0 mm 7 m/s 667 mmHg 13%
    17:00 +38°C° 0 mm 7 m/s 667 mmHg 13%
    18:00 +37°C° 0 mm 8 m/s 667 mmHg 14%
    19:00 +35°C° 0 mm 7 m/s 667 mmHg 15%
    20:00 +33°C° 0 mm 7 m/s 667 mmHg 17%
    21:00 +32°C° 0 mm 6 m/s 667 mmHg 19%
    22:00 +30°C° 0 mm 6 m/s 667 mmHg 20%
    23:00 +29°C° 0 mm 6 m/s 666 mmHg 21%

    20 Juin, Jeudi

    Heure Température Précipitation Vent Pression Humidité
    00:00 +29°C° 0 mm 6 m/s 666 mmHg 21%
    01:00 +28°C° 0 mm 6 m/s 666 mmHg 22%
    02:00 +27°C° 0 mm 6 m/s 665 mmHg 23%
    03:00 +27°C° 0 mm 6 m/s 665 mmHg 23%
    04:00 +27°C° 0 mm 6 m/s 665 mmHg 23%
    05:00 +28°C° 0 mm 6 m/s 666 mmHg 22%
    06:00 +28°C° 0 mm 6 m/s 666 mmHg 21%
    07:00 +30°C° 0 mm 7 m/s 666 mmHg 19%
    08:00 +33°C° 0 mm 8 m/s 667 mmHg 17%
    09:00 +35°C° 0 mm 9 m/s 667 mmHg 14%
    10:00 +37°C° 0 mm 9 m/s 667 mmHg 13%
    11:00 +38°C° 0 mm 9 m/s 667 mmHg 11%
    12:00 +39°C° 0 mm 9 m/s 667 mmHg 10%
    13:00 +39°C° 0 mm 9 m/s 667 mmHg 10%
    14:00 +39°C° 0 mm 10 m/s 666 mmHg 10%
    15:00 +39°C° 0 mm 10 m/s 666 mmHg 10%
    16:00 +39°C° 0 mm 9 m/s 666 mmHg 10%
    17:00 +38°C° 0 mm 9 m/s 666 mmHg 10%
    18:00 +37°C° 0 mm 8 m/s 665 mmHg 10%
    19:00 +35°C° 0 mm 8 m/s 665 mmHg 11%
    20:00 +34°C° 0 mm 7 m/s 665 mmHg 12%
    21:00 +32°C° 0 mm 7 m/s 665 mmHg 13%
    22:00 +32°C° 0 mm 7 m/s 665 mmHg 13%
    23:00 +30°C° 0 mm 7 m/s 665 mmHg 14%

    21 Juin, Vendredi

    Heure Température Précipitation Vent Pression Humidité
    00:00 +29°C° 0 mm 8 m/s 665 mmHg 15%
    01:00 +29°C° 0 mm 8 m/s 665 mmHg 16%
    02:00 +28°C° 0 mm 8 m/s 664 mmHg 17%
    03:00 +27°C° 0 mm 8 m/s 664 mmHg 18%
    04:00 +28°C° 0 mm 8 m/s 665 mmHg 19%
    05:00 +28°C° 0 mm 8 m/s 665 mmHg 20%
    06:00 +28°C° 0 mm 7 m/s 665 mmHg 20%
    07:00 +29°C° 0 mm 9 m/s 666 mmHg 19%
    08:00 +32°C° 0 mm 11 m/s 666 mmHg 17%
    09:00 +34°C° 0 mm 12 m/s 667 mmHg 15%
    10:00 +37°C° 0 mm 12 m/s 666 mmHg 13%
    11:00 +38°C° 0 mm 12 m/s 666 mmHg 11%
    12:00 +41°C° 0 mm 12 m/s 666 mmHg 10%
    13:00 +41°C° 0 mm 12 m/s 666 mmHg 9%
    14:00 +42°C° 0 mm 12 m/s 665 mmHg 9%
    15:00 +42°C° 0 mm 12 m/s 665 mmHg 8%
    16:00 +41°C° 0 mm 11 m/s 665 mmHg 9%
    17:00 +39°C° 0 mm 10 m/s 665 mmHg 10%
    18:00 +38°C° 0 mm 9 m/s 665 mmHg 11%
    19:00 +33°C° 0 mm 8 m/s 665 mmHg 19%
    20:00 +29°C° 0 mm 7 m/s 664 mmHg 27%
    21:00 +24°C° 0 mm 6 m/s 664 mmHg 35%
    22:00 +23°C° 0 mm 5 m/s 664 mmHg 37%
    23:00 +22°C° 0 mm 4 m/s 664 mmHg 39%

    22 Juin, Samedi

    Heure Température Précipitation Vent Pression Humidité
    00:00 +21°C° 0 mm 3 m/s 664 mmHg 41%
    01:00 +21°C° 0 mm 2 m/s 664 mmHg 43%
    02:00 +20°C° 0 mm 2 m/s 663 mmHg 44%
    03:00 +20°C° 0 mm 1 m/s 663 mmHg 45%
    04:00 +21°C° 0 mm 2 m/s 664 mmHg 42%
    05:00 +22°C° 0 mm 3 m/s 665 mmHg 38%
    06:00 +24°C° 0 mm 3 m/s 665 mmHg 35%
    07:00 +27°C° 0 mm 5 m/s 666 mmHg 27%
    08:00 +30°C° 0 mm 7 m/s 667 mmHg 20%
    09:00 +36°C° 0 mm 10 m/s 667 mmHg 13%
    10:00 +37°C° 0 mm 10 m/s 667 mmHg 12%
    11:00 +38°C° 0 mm 10 m/s 667 mmHg 11%
    12:00 +41°C° 0 mm 11 m/s 667 mmHg 9%
    13:00 +41°C° 0 mm 11 m/s 666 mmHg 9%
    14:00 +42°C° 0 mm 11 m/s 666 mmHg 8%
    15:00 +42°C° 0 mm 11 m/s 666 mmHg 8%
    16:00 +40°C° 0 mm 10 m/s 665 mmHg 8%
    17:00 +40°C° 0 mm 10 m/s 665 mmHg 9%
    18:00 +39°C° 0 mm 10 m/s 665 mmHg 9%
    19:00 +37°C° 0 mm 10 m/s 665 mmHg 10%
    20:00 +36°C° 0 mm 10 m/s 665 mmHg 11%
    21:00 +33°C° 0 mm 10 m/s 666 mmHg 12%
    22:00 +33°C° 0 mm 10 m/s 666 mmHg 13%
    23:00 +32°C° 0 mm 11 m/s 665 mmHg 14%
    Voir plus